Year,Month,Day,Hour,Minute,Value (Times are PST for insolation in W/m^2)
2012,12,07,00,00,0.00
2012,12,07,00,01,0.00
2012,12,07,00,02,0.00
2012,12,07,00,03,0.00
2012,12,07,00,04,0.00
2012,12,07,00,05,0.00
2012,12,07,00,06,0.00
2012,12,07,00,07,0.00
2012,12,07,00,08,0.00
2012,12,07,00,09,0.00
2012,12,07,00,10,0.00
2012,12,07,00,11,0.00
2012,12,07,00,12,0.00
2012,12,07,00,13,0.00
2012,12,07,00,14,0.00
2012,12,07,00,15,0.00
2012,12,07,00,16,0.00
2012,12,07,00,17,0.00
2012,12,07,00,18,0.00
2012,12,07,00,19,0.00
2012,12,07,00,20,0.00
2012,12,07,00,21,0.00
2012,12,07,00,22,0.00
2012,12,07,00,23,0.00
2012,12,07,00,24,0.00
2012,12,07,00,25,0.00
2012,12,07,00,26,0.00
2012,12,07,00,27,0.00
2012,12,07,00,28,0.00
2012,12,07,00,29,0.00
2012,12,07,00,30,0.00
2012,12,07,00,31,0.00
2012,12,07,00,32,0.00
2012,12,07,00,33,0.00
2012,12,07,00,34,0.00
2012,12,07,00,35,0.00
2012,12,07,00,36,0.00
2012,12,07,00,37,0.00
2012,12,07,00,38,0.00
2012,12,07,00,39,0.00
2012,12,07,00,40,0.00
2012,12,07,00,41,0.00
2012,12,07,00,42,0.00
2012,12,07,00,43,0.00
2012,12,07,00,44,0.00
2012,12,07,00,45,0.00
2012,12,07,00,46,0.00
2012,12,07,00,47,0.00
2012,12,07,00,48,0.00
2012,12,07,00,49,0.00
2012,12,07,00,50,0.00
2012,12,07,00,51,0.00
2012,12,07,00,52,0.00
2012,12,07,00,53,0.00
2012,12,07,00,54,0.00
2012,12,07,00,55,0.00
2012,12,07,00,56,0.00
2012,12,07,00,57,0.00
2012,12,07,00,58,0.00
2012,12,07,00,59,0.00
2012,12,07,01,00,0.00
2012,12,07,01,01,0.00
2012,12,07,01,02,0.00
2012,12,07,01,03,0.00
2012,12,07,01,04,0.00
2012,12,07,01,05,0.00
2012,12,07,01,06,0.00
2012,12,07,01,07,0.00
2012,12,07,01,08,0.00
2012,12,07,01,09,0.00
2012,12,07,01,10,0.00
2012,12,07,01,11,0.00
2012,12,07,01,12,0.00
2012,12,07,01,13,0.00
2012,12,07,01,14,0.00
2012,12,07,01,15,0.00
2012,12,07,01,16,0.00
2012,12,07,01,17,0.00
2012,12,07,01,18,0.00
2012,12,07,01,19,0.00
2012,12,07,01,20,0.00
2012,12,07,01,21,0.00
2012,12,07,01,22,0.00
2012,12,07,01,23,0.00
2012,12,07,01,24,0.00
2012,12,07,01,25,0.00
2012,12,07,01,26,0.00
2012,12,07,01,27,0.00
2012,12,07,01,28,0.00
2012,12,07,01,29,0.00
2012,12,07,01,30,0.00
2012,12,07,01,31,0.00
2012,12,07,01,32,0.00
2012,12,07,01,33,0.00
2012,12,07,01,34,0.00
2012,12,07,01,35,0.00
2012,12,07,01,36,0.00
2012,12,07,01,37,0.00
2012,12,07,01,38,0.00
2012,12,07,01,39,0.00
2012,12,07,01,40,0.00
2012,12,07,01,41,0.00
2012,12,07,01,42,0.00
2012,12,07,01,43,0.00
2012,12,07,01,44,0.00
2012,12,07,01,45,0.00
2012,12,07,01,46,0.00
2012,12,07,01,47,0.00
2012,12,07,01,48,0.00
2012,12,07,01,49,0.00
2012,12,07,01,50,0.00
2012,12,07,01,51,0.00
2012,12,07,01,52,0.00
2012,12,07,01,53,0.00
2012,12,07,01,54,0.00
2012,12,07,01,55,0.00
2012,12,07,01,56,0.00
2012,12,07,01,57,0.00
2012,12,07,01,58,0.00
2012,12,07,01,59,0.00
2012,12,07,02,00,0.00
2012,12,07,02,01,0.00
2012,12,07,02,02,0.00
2012,12,07,02,03,0.00
2012,12,07,02,04,0.00
2012,12,07,02,05,0.00
2012,12,07,02,06,0.00
2012,12,07,02,07,0.00
2012,12,07,02,08,0.00
2012,12,07,02,09,0.00
2012,12,07,02,10,0.00
2012,12,07,02,11,0.00
2012,12,07,02,12,0.00
2012,12,07,02,13,0.00
2012,12,07,02,14,0.00
2012,12,07,02,15,0.00
2012,12,07,02,16,0.00
2012,12,07,02,17,0.00
2012,12,07,02,18,0.00
2012,12,07,02,19,0.00
2012,12,07,02,20,0.00
2012,12,07,02,21,0.00
2012,12,07,02,22,0.00
2012,12,07,02,23,0.00
2012,12,07,02,24,0.00
2012,12,07,02,25,0.00
2012,12,07,02,26,0.00
2012,12,07,02,27,0.00
2012,12,07,02,28,0.00
2012,12,07,02,29,0.00
2012,12,07,02,30,0.00
2012,12,07,02,31,0.00
2012,12,07,02,32,0.00
2012,12,07,02,33,0.00
2012,12,07,02,34,0.00
2012,12,07,02,35,0.00
2012,12,07,02,36,0.00
2012,12,07,02,37,0.00
2012,12,07,02,38,0.00
2012,12,07,02,39,0.00
2012,12,07,02,40,0.00
2012,12,07,02,41,0.00
2012,12,07,02,42,0.00
2012,12,07,02,43,0.00
2012,12,07,02,44,0.00
2012,12,07,02,45,0.00
2012,12,07,02,46,0.00
2012,12,07,02,47,0.00
2012,12,07,02,48,0.00
2012,12,07,02,49,0.00
2012,12,07,02,50,0.00
2012,12,07,02,51,0.00
2012,12,07,02,52,0.00
2012,12,07,02,53,0.00
2012,12,07,02,54,0.00
2012,12,07,02,55,0.00
2012,12,07,02,56,0.00
2012,12,07,02,57,0.00
2012,12,07,02,58,0.00
2012,12,07,02,59,0.00
2012,12,07,03,00,0.00
2012,12,07,03,01,0.00
2012,12,07,03,02,0.00
2012,12,07,03,03,0.00
2012,12,07,03,04,0.00
2012,12,07,03,05,0.00
2012,12,07,03,06,0.00
2012,12,07,03,07,0.00
2012,12,07,03,08,0.00
2012,12,07,03,09,0.00
2012,12,07,03,10,0.00
2012,12,07,03,11,0.00
2012,12,07,03,12,0.00
2012,12,07,03,13,0.00
2012,12,07,03,14,0.00
2012,12,07,03,15,0.00
2012,12,07,03,16,0.00
2012,12,07,03,17,0.00
2012,12,07,03,18,0.00
2012,12,07,03,19,0.00
2012,12,07,03,20,0.00
2012,12,07,03,21,0.00
2012,12,07,03,22,0.00
2012,12,07,03,23,0.00
2012,12,07,03,24,0.00
2012,12,07,03,25,0.00
2012,12,07,03,26,0.00
2012,12,07,03,27,0.00
2012,12,07,03,28,0.00
2012,12,07,03,29,0.00
2012,12,07,03,30,0.00
2012,12,07,03,31,0.00
2012,12,07,03,32,0.00
2012,12,07,03,33,0.00
2012,12,07,03,34,0.00
2012,12,07,03,35,0.00
2012,12,07,03,36,0.00
2012,12,07,03,37,0.00
2012,12,07,03,38,0.00
2012,12,07,03,39,0.00
2012,12,07,03,40,0.00
2012,12,07,03,41,0.00
2012,12,07,03,42,0.00
2012,12,07,03,43,0.00
2012,12,07,03,44,0.00
2012,12,07,03,45,0.00
2012,12,07,03,46,0.00
2012,12,07,03,47,0.00
2012,12,07,03,48,0.00
2012,12,07,03,49,0.00
2012,12,07,03,50,0.00
2012,12,07,03,51,0.00
2012,12,07,03,52,0.00
2012,12,07,03,53,0.00
2012,12,07,03,54,0.00
2012,12,07,03,55,0.00
2012,12,07,03,56,0.00
2012,12,07,03,57,0.00
2012,12,07,03,58,0.00
2012,12,07,03,59,0.00
2012,12,07,04,00,0.00
2012,12,07,04,01,0.00
2012,12,07,04,02,0.00
2012,12,07,04,03,0.00
2012,12,07,04,04,0.00
2012,12,07,04,05,0.00
2012,12,07,04,06,0.00
2012,12,07,04,07,0.00
2012,12,07,04,08,0.00
2012,12,07,04,09,0.00
2012,12,07,04,10,0.00
2012,12,07,04,11,0.00
2012,12,07,04,12,0.00
2012,12,07,04,13,0.00
2012,12,07,04,14,0.00
2012,12,07,04,15,0.00
2012,12,07,04,16,0.00
2012,12,07,04,17,0.00
2012,12,07,04,18,0.00
2012,12,07,04,19,0.00
2012,12,07,04,20,0.00
2012,12,07,04,21,0.00
2012,12,07,04,22,0.00
2012,12,07,04,23,0.00
2012,12,07,04,24,0.00
2012,12,07,04,25,0.00
2012,12,07,04,26,0.00
2012,12,07,04,27,0.00
2012,12,07,04,28,0.00
2012,12,07,04,29,0.00
2012,12,07,04,30,0.00
2012,12,07,04,31,0.00
2012,12,07,04,32,0.00
2012,12,07,04,33,0.00
2012,12,07,04,34,0.00
2012,12,07,04,35,0.00
2012,12,07,04,36,0.00
2012,12,07,04,37,0.00
2012,12,07,04,38,0.00
2012,12,07,04,39,0.00
2012,12,07,04,40,0.00
2012,12,07,04,41,0.00
2012,12,07,04,42,0.00
2012,12,07,04,43,0.00
2012,12,07,04,44,0.00
2012,12,07,04,45,0.00
2012,12,07,04,46,0.00
2012,12,07,04,47,0.00
2012,12,07,04,48,0.00
2012,12,07,04,49,0.00
2012,12,07,04,50,0.00
2012,12,07,04,51,0.00
2012,12,07,04,52,0.00
2012,12,07,04,53,0.00
2012,12,07,04,54,0.00
2012,12,07,04,55,0.00
2012,12,07,04,56,0.00
2012,12,07,04,57,0.00
2012,12,07,04,58,0.00
2012,12,07,04,59,0.00
2012,12,07,05,00,0.00
2012,12,07,05,01,0.00
2012,12,07,05,02,0.00
2012,12,07,05,03,0.00
2012,12,07,05,04,0.00
2012,12,07,05,05,0.00
2012,12,07,05,06,0.00
2012,12,07,05,07,0.00
2012,12,07,05,08,0.00
2012,12,07,05,09,0.00
2012,12,07,05,10,0.00
2012,12,07,05,11,0.00
2012,12,07,05,12,0.00
2012,12,07,05,13,0.00
2012,12,07,05,14,0.00
2012,12,07,05,15,0.00
2012,12,07,05,16,0.00
2012,12,07,05,17,0.00
2012,12,07,05,18,0.00
2012,12,07,05,19,0.00
2012,12,07,05,20,0.00
2012,12,07,05,21,0.00
2012,12,07,05,22,0.00
2012,12,07,05,23,0.00
2012,12,07,05,24,0.00
2012,12,07,05,25,0.00
2012,12,07,05,26,0.00
2012,12,07,05,27,0.00
2012,12,07,05,28,0.00
2012,12,07,05,29,0.00
2012,12,07,05,30,0.00
2012,12,07,05,31,0.00
2012,12,07,05,32,0.00
2012,12,07,05,33,0.00
2012,12,07,05,34,0.00
2012,12,07,05,35,0.00
2012,12,07,05,36,0.00
2012,12,07,05,37,0.00
2012,12,07,05,38,0.00
2012,12,07,05,39,0.00
2012,12,07,05,40,0.00
2012,12,07,05,41,0.00
2012,12,07,05,42,0.00
2012,12,07,05,43,0.00
2012,12,07,05,44,0.00
2012,12,07,05,45,0.00
2012,12,07,05,46,0.00
2012,12,07,05,47,0.00
2012,12,07,05,48,0.00
2012,12,07,05,49,0.00
2012,12,07,05,50,0.00
2012,12,07,05,51,0.00
2012,12,07,05,52,0.00
2012,12,07,05,53,0.00
2012,12,07,05,54,0.00
2012,12,07,05,55,0.00
2012,12,07,05,56,0.00
2012,12,07,05,57,0.00
2012,12,07,05,58,0.00
2012,12,07,05,59,0.00
2012,12,07,06,00,0.00
2012,12,07,06,01,0.00
2012,12,07,06,02,0.00
2012,12,07,06,03,0.00
2012,12,07,06,04,0.00
2012,12,07,06,05,0.00
2012,12,07,06,06,0.00
2012,12,07,06,07,0.00
2012,12,07,06,08,0.00
2012,12,07,06,09,0.00
2012,12,07,06,10,0.00
2012,12,07,06,11,0.00
2012,12,07,06,12,0.00
2012,12,07,06,13,0.00
2012,12,07,06,14,0.00
2012,12,07,06,15,0.00
2012,12,07,06,16,0.00
2012,12,07,06,17,0.00
2012,12,07,06,18,0.00
2012,12,07,06,19,0.00
2012,12,07,06,20,0.00
2012,12,07,06,21,0.00
2012,12,07,06,22,0.00
2012,12,07,06,23,0.00
2012,12,07,06,24,0.00
2012,12,07,06,25,0.00
2012,12,07,06,26,0.00
2012,12,07,06,27,0.00
2012,12,07,06,28,0.00
2012,12,07,06,29,0.00
2012,12,07,06,30,0.00
2012,12,07,06,31,0.00
2012,12,07,06,32,0.00
2012,12,07,06,33,0.00
2012,12,07,06,34,0.00
2012,12,07,06,35,0.00
2012,12,07,06,36,0.00
2012,12,07,06,37,0.00
2012,12,07,06,38,0.00
2012,12,07,06,39,0.00
2012,12,07,06,40,0.00
2012,12,07,06,41,0.00
2012,12,07,06,42,0.00
2012,12,07,06,43,0.00
2012,12,07,06,44,0.00
2012,12,07,06,45,0.00
2012,12,07,06,46,0.00
2012,12,07,06,47,0.00
2012,12,07,06,48,0.00
2012,12,07,06,49,0.00
2012,12,07,06,50,0.00
2012,12,07,06,51,0.00
2012,12,07,06,52,0.00
2012,12,07,06,53,0.00
2012,12,07,06,54,0.00
2012,12,07,06,55,0.00
2012,12,07,06,56,0.00
2012,12,07,06,57,0.00
2012,12,07,06,58,0.00
2012,12,07,06,59,0.00
2012,12,07,07,00,0.00
2012,12,07,07,01,0.00
2012,12,07,07,02,0.00
2012,12,07,07,03,0.00
2012,12,07,07,04,0.00
2012,12,07,07,05,0.00
2012,12,07,07,06,0.00
2012,12,07,07,07,0.00
2012,12,07,07,08,0.00
2012,12,07,07,09,0.00
2012,12,07,07,10,0.00
2012,12,07,07,11,0.00
2012,12,07,07,12,0.00
2012,12,07,07,13,0.00
2012,12,07,07,14,0.00
2012,12,07,07,15,0.00
2012,12,07,07,16,0.00
2012,12,07,07,17,0.00
2012,12,07,07,18,0.00
2012,12,07,07,19,0.00
2012,12,07,07,20,0.00
2012,12,07,07,21,0.00
2012,12,07,07,22,0.00
2012,12,07,07,23,0.00
2012,12,07,07,24,0.00
2012,12,07,07,25,0.00
2012,12,07,07,26,0.00
2012,12,07,07,27,0.00
2012,12,07,07,28,0.00
2012,12,07,07,29,0.00
2012,12,07,07,30,0.00
2012,12,07,07,31,0.00
2012,12,07,07,32,0.00
2012,12,07,07,33,0.00
2012,12,07,07,34,0.00
2012,12,07,07,35,0.00
2012,12,07,07,36,0.00
2012,12,07,07,37,0.00
2012,12,07,07,38,0.00
2012,12,07,07,39,0.00
2012,12,07,07,40,0.00
2012,12,07,07,41,0.00
2012,12,07,07,42,0.00
2012,12,07,07,43,0.00
2012,12,07,07,44,0.00
2012,12,07,07,45,0.00
2012,12,07,07,46,0.00
2012,12,07,07,47,0.00
2012,12,07,07,48,0.00
2012,12,07,07,49,0.00
2012,12,07,07,50,0.00
2012,12,07,07,51,0.00
2012,12,07,07,52,0.00
2012,12,07,07,53,0.00
2012,12,07,07,54,0.00
2012,12,07,07,55,0.00
2012,12,07,07,56,0.00
2012,12,07,07,57,0.00
2012,12,07,07,58,0.00
2012,12,07,07,59,0.00
2012,12,07,08,00,0.00
2012,12,07,08,01,0.00
2012,12,07,08,02,0.00
2012,12,07,08,03,0.00
2012,12,07,08,04,0.00
2012,12,07,08,05,0.00
2012,12,07,08,06,0.00
2012,12,07,08,07,0.00
2012,12,07,08,08,0.00
2012,12,07,08,09,0.00
2012,12,07,08,10,0.00
2012,12,07,08,11,0.00
2012,12,07,08,12,0.00
2012,12,07,08,13,0.00
2012,12,07,08,14,0.00
2012,12,07,08,15,0.00
2012,12,07,08,16,0.00
2012,12,07,08,17,0.00
2012,12,07,08,18,4.20
2012,12,07,08,19,5.00
2012,12,07,08,20,5.00
2012,12,07,08,21,5.00
2012,12,07,08,22,5.00
2012,12,07,08,23,5.00
2012,12,07,08,24,5.30
2012,12,07,08,25,7.00
2012,12,07,08,26,7.00
2012,12,07,08,27,7.50
2012,12,07,08,28,9.00
2012,12,07,08,29,9.00
2012,12,07,08,30,9.00
2012,12,07,08,31,8.10
2012,12,07,08,32,7.00
2012,12,07,08,33,7.00
2012,12,07,08,34,7.00
2012,12,07,08,35,7.00
2012,12,07,08,36,7.00
2012,12,07,08,37,7.00
2012,12,07,08,38,7.00
2012,12,07,08,39,7.00
2012,12,07,08,40,8.60
2012,12,07,08,41,9.00
2012,12,07,08,42,9.00
2012,12,07,08,43,10.90
2012,12,07,08,44,12.00
2012,12,07,08,45,12.10
2012,12,07,08,46,14.20
2012,12,07,08,47,16.20
2012,12,07,08,48,18.20
2012,12,07,08,49,19.80
2012,12,07,08,50,23.00
2012,12,07,08,51,22.40
2012,12,07,08,52,21.00
2012,12,07,08,53,20.20
2012,12,07,08,54,19.00
2012,12,07,08,55,19.00
2012,12,07,08,56,20.10
2012,12,07,08,57,21.00
2012,12,07,08,58,21.00
2012,12,07,08,59,19.70
2012,12,07,09,00,18.30
2012,12,07,09,01,18.00
2012,12,07,09,02,18.00
2012,12,07,09,03,18.80
2012,12,07,09,04,20.70
2012,12,07,09,05,22.80
2012,12,07,09,06,25.90
2012,12,07,09,07,30.20
2012,12,07,09,08,35.10
2012,12,07,09,09,37.20
2012,12,07,09,10,39.80
2012,12,07,09,11,44.60
2012,12,07,09,12,48.50
2012,12,07,09,13,53.00
2012,12,07,09,14,53.30
2012,12,07,09,15,55.40
2012,12,07,09,16,60.00
2012,12,07,09,17,67.60
2012,12,07,09,18,78.50
2012,12,07,09,19,86.50
2012,12,07,09,20,94.40
2012,12,07,09,21,99.20
2012,12,07,09,22,100.00
2012,12,07,09,23,100.00
2012,12,07,09,24,87.50
2012,12,07,09,25,80.00
2012,12,07,09,26,69.40
2012,12,07,09,27,55.20
2012,12,07,09,28,45.30
2012,12,07,09,29,39.20
2012,12,07,09,30,39.00
2012,12,07,09,31,38.80
2012,12,07,09,32,37.00
2012,12,07,09,33,37.00
2012,12,07,09,34,37.40
2012,12,07,09,35,39.00
2012,12,07,09,36,39.20
2012,12,07,09,37,41.40
2012,12,07,09,38,44.70
2012,12,07,09,39,50.00
2012,12,07,09,40,57.80
2012,12,07,09,41,59.10
2012,12,07,09,42,56.00
2012,12,07,09,43,54.00
2012,12,07,09,44,54.00
2012,12,07,09,45,49.30
2012,12,07,09,46,48.40
2012,12,07,09,47,47.60
2012,12,07,09,48,47.00
2012,12,07,09,49,48.70
2012,12,07,09,50,56.70
2012,12,07,09,51,45.40
2012,12,07,09,52,37.40
2012,12,07,09,53,33.20
2012,12,07,09,54,32.70
2012,12,07,09,55,29.60
2012,12,07,09,56,26.30
2012,12,07,09,57,28.00
2012,12,07,09,58,28.50
2012,12,07,09,59,30.60
2012,12,07,10,00,33.60
2012,12,07,10,01,37.70
2012,12,07,10,02,40.20
2012,12,07,10,03,40.00
2012,12,07,10,04,37.00
2012,12,07,10,05,35.90
2012,12,07,10,06,33.80
2012,12,07,10,07,33.00
2012,12,07,10,08,34.30
2012,12,07,10,09,36.40
2012,12,07,10,10,38.40
2012,12,07,10,11,39.80
2012,12,07,10,12,41.60
2012,12,07,10,13,42.00
2012,12,07,10,14,42.00
2012,12,07,10,15,40.20
2012,12,07,10,16,37.20
2012,12,07,10,17,35.20
2012,12,07,10,18,37.30
2012,12,07,10,19,39.50
2012,12,07,10,20,41.60
2012,12,07,10,21,40.00
2012,12,07,10,22,43.50
2012,12,07,10,23,50.20
2012,12,07,10,24,43.30
2012,12,07,10,25,48.80
2012,12,07,10,26,50.10
2012,12,07,10,27,47.30
2012,12,07,10,28,49.00
2012,12,07,10,29,50.10
2012,12,07,10,30,63.00
2012,12,07,10,31,75.60
2012,12,07,10,32,98.20
2012,12,07,10,33,146.20
2012,12,07,10,34,151.60
2012,12,07,10,35,105.10
2012,12,07,10,36,99.60
2012,12,07,10,37,104.50
2012,12,07,10,38,145.90
2012,12,07,10,39,124.30
2012,12,07,10,40,206.10
2012,12,07,10,41,204.10
2012,12,07,10,42,181.10
2012,12,07,10,43,187.00
2012,12,07,10,44,142.60
2012,12,07,10,45,160.00
2012,12,07,10,46,169.00
2012,12,07,10,47,187.10
2012,12,07,10,48,209.60
2012,12,07,10,49,173.40
2012,12,07,10,50,168.30
2012,12,07,10,51,177.80
2012,12,07,10,52,234.60
2012,12,07,10,53,227.90
2012,12,07,10,54,228.10
2012,12,07,10,55,266.30
2012,12,07,10,56,245.80
2012,12,07,10,57,238.80
2012,12,07,10,58,268.80
2012,12,07,10,59,298.30
2012,12,07,11,00,327.30
2012,12,07,11,01,245.40
2012,12,07,11,02,242.70
2012,12,07,11,03,237.90
2012,12,07,11,04,144.10
2012,12,07,11,05,182.80
2012,12,07,11,06,255.20
2012,12,07,11,07,299.40
2012,12,07,11,08,251.50
2012,12,07,11,09,295.00
2012,12,07,11,10,295.00
2012,12,07,11,11,309.70
2012,12,07,11,12,338.10
2012,12,07,11,13,359.50
2012,12,07,11,14,385.70
2012,12,07,11,15,420.50
2012,12,07,11,16,466.20
2012,12,07,11,17,507.10
2012,12,07,11,18,482.30
2012,12,07,11,19,457.10
2012,12,07,11,20,455.00
2012,12,07,11,21,233.40
2012,12,07,11,22,132.90
2012,12,07,11,23,101.30
2012,12,07,11,24,86.70
2012,12,07,11,25,72.70
2012,12,07,11,26,66.80
2012,12,07,11,27,65.40
2012,12,07,11,28,68.70
2012,12,07,11,29,65.20
2012,12,07,11,30,57.60
2012,12,07,11,31,55.50
2012,12,07,11,32,54.60
2012,12,07,11,33,55.30
2012,12,07,11,34,54.00
2012,12,07,11,35,57.60
2012,12,07,11,36,62.50
2012,12,07,11,37,60.50
2012,12,07,11,38,55.20
2012,12,07,11,39,49.50
2012,12,07,11,40,45.00
2012,12,07,11,41,44.00
2012,12,07,11,42,46.10
2012,12,07,11,43,53.80
2012,12,07,11,44,69.50
2012,12,07,11,45,93.20
2012,12,07,11,46,115.90
2012,12,07,11,47,124.60
2012,12,07,11,48,131.60
2012,12,07,11,49,165.90
2012,12,07,11,50,147.00
2012,12,07,11,51,175.70
2012,12,07,11,52,175.00
2012,12,07,11,53,192.80
2012,12,07,11,54,232.20
2012,12,07,11,55,228.00
2012,12,07,11,56,255.20
2012,12,07,11,57,286.00
2012,12,07,11,58,245.10
2012,12,07,11,59,205.80
2012,12,07,12,00,200.00
2012,12,07,12,01,266.10
2012,12,07,12,02,278.40
2012,12,07,12,03,265.50
2012,12,07,12,04,266.20
2012,12,07,12,05,240.70
2012,12,07,12,06,185.50
2012,12,07,12,07,169.30
2012,12,07,12,08,185.00
2012,12,07,12,09,215.40
2012,12,07,12,10,276.00
2012,12,07,12,11,259.20
2012,12,07,12,12,284.40
2012,12,07,12,13,311.70
2012,12,07,12,14,337.00
2012,12,07,12,15,346.30
2012,12,07,12,16,363.20
2012,12,07,12,17,358.00
2012,12,07,12,18,359.00
2012,12,07,12,19,377.20
2012,12,07,12,20,360.20
2012,12,07,12,21,351.80
2012,12,07,12,22,402.00
2012,12,07,12,23,436.50
2012,12,07,12,24,464.50
2012,12,07,12,25,413.00
2012,12,07,12,26,373.00
2012,12,07,12,27,264.50
2012,12,07,12,28,206.00
2012,12,07,12,29,208.20
2012,12,07,12,30,207.40
2012,12,07,12,31,208.70
2012,12,07,12,32,217.10
2012,12,07,12,33,234.20
2012,12,07,12,34,229.40
2012,12,07,12,35,203.10
2012,12,07,12,36,184.60
2012,12,07,12,37,181.80
2012,12,07,12,38,202.60
2012,12,07,12,39,249.40
2012,12,07,12,40,166.80
2012,12,07,12,41,153.60
2012,12,07,12,42,194.60
2012,12,07,12,43,180.20
2012,12,07,12,44,118.40
2012,12,07,12,45,97.00
2012,12,07,12,46,119.00
2012,12,07,12,47,139.00
2012,12,07,12,48,271.00
2012,12,07,12,49,359.00
2012,12,07,12,50,222.80
2012,12,07,12,51,134.10
2012,12,07,12,52,187.50
2012,12,07,12,53,209.00
2012,12,07,12,54,122.30
2012,12,07,12,55,119.60
2012,12,07,12,56,126.40
2012,12,07,12,57,90.00
2012,12,07,12,58,126.30
2012,12,07,12,59,55.70
2012,12,07,13,00,66.00
2012,12,07,13,01,123.40
2012,12,07,13,02,46.00
2012,12,07,13,03,79.70
2012,12,07,13,04,149.10
2012,12,07,13,05,82.60
2012,12,07,13,06,71.80
2012,12,07,13,07,118.60
2012,12,07,13,08,167.00
2012,12,07,13,09,109.00
2012,12,07,13,10,51.00
2012,12,07,13,11,172.90
2012,12,07,13,12,257.00
2012,12,07,13,13,210.80
2012,12,07,13,14,233.70
2012,12,07,13,15,265.80
2012,12,07,13,16,277.40
2012,12,07,13,17,286.70
2012,12,07,13,18,289.80
2012,12,07,13,19,287.20
2012,12,07,13,20,285.20
2012,12,07,13,21,287.00
2012,12,07,13,22,287.00
2012,12,07,13,23,286.10
2012,12,07,13,24,280.00
2012,12,07,13,25,276.00
2012,12,07,13,26,276.50
2012,12,07,13,27,275.90
2012,12,07,13,28,263.00
2012,12,07,13,29,213.60
2012,12,07,13,30,188.60
2012,12,07,13,31,200.80
2012,12,07,13,32,198.00
2012,12,07,13,33,186.50
2012,12,07,13,34,213.60
2012,12,07,13,35,216.30
2012,12,07,13,36,215.90
2012,12,07,13,37,203.60
2012,12,07,13,38,195.00
2012,12,07,13,39,191.00
2012,12,07,13,40,174.70
2012,12,07,13,41,175.60
2012,12,07,13,42,157.00
2012,12,07,13,43,170.20
2012,12,07,13,44,197.90
2012,12,07,13,45,200.70
2012,12,07,13,46,163.60
2012,12,07,13,47,207.60
2012,12,07,13,48,211.00
2012,12,07,13,49,211.00
2012,12,07,13,50,211.00
2012,12,07,13,51,211.00
2012,12,07,13,52,145.90
2012,12,07,13,53,40.00
2012,12,07,13,54,110.70
2012,12,07,13,55,190.90
2012,12,07,13,56,183.10
2012,12,07,13,57,152.80
2012,12,07,13,58,131.50
2012,12,07,13,59,174.70
2012,12,07,14,00,192.00
2012,12,07,14,01,188.50
2012,12,07,14,02,183.80
2012,12,07,14,03,179.60
2012,12,07,14,04,172.70
2012,12,07,14,05,180.60
2012,12,07,14,06,169.60
2012,12,07,14,07,168.90
2012,12,07,14,08,166.80
2012,12,07,14,09,157.60
2012,12,07,14,10,116.80
2012,12,07,14,11,121.40
2012,12,07,14,12,126.10
2012,12,07,14,13,127.30
2012,12,07,14,14,122.50
2012,12,07,14,15,124.40
2012,12,07,14,16,117.90
2012,12,07,14,17,116.90
2012,12,07,14,18,79.50
2012,12,07,14,19,68.60
2012,12,07,14,20,67.40
2012,12,07,14,21,65.50
2012,12,07,14,22,61.20
2012,12,07,14,23,66.40
2012,12,07,14,24,75.20
2012,12,07,14,25,93.80
2012,12,07,14,26,87.80
2012,12,07,14,27,99.30
2012,12,07,14,28,103.60
2012,12,07,14,29,98.70
2012,12,07,14,30,69.60
2012,12,07,14,31,61.40
2012,12,07,14,32,56.30
2012,12,07,14,33,55.20
2012,12,07,14,34,44.60
2012,12,07,14,35,47.00
2012,12,07,14,36,46.70
2012,12,07,14,37,48.60
2012,12,07,14,38,50.90
2012,12,07,14,39,43.80
2012,12,07,14,40,40.00
2012,12,07,14,41,38.50
2012,12,07,14,42,35.90
2012,12,07,14,43,35.00
2012,12,07,14,44,35.00
2012,12,07,14,45,33.60
2012,12,07,14,46,34.50
2012,12,07,14,47,35.00
2012,12,07,14,48,35.00
2012,12,07,14,49,44.30
2012,12,07,14,50,44.30
2012,12,07,14,51,39.20
2012,12,07,14,52,33.00
2012,12,07,14,53,32.00
2012,12,07,14,54,31.80
2012,12,07,14,55,30.00
2012,12,07,14,56,30.00
2012,12,07,14,57,30.00
2012,12,07,14,58,30.00
2012,12,07,14,59,29.40
2012,12,07,15,00,28.00
2012,12,07,15,01,28.00
2012,12,07,15,02,28.00
2012,12,07,15,03,28.00
2012,12,07,15,04,27.00
2012,12,07,15,05,26.00
2012,12,07,15,06,26.00
2012,12,07,15,07,25.30
2012,12,07,15,08,25.00
2012,12,07,15,09,25.00
2012,12,07,15,10,25.00
2012,12,07,15,11,25.80
2012,12,07,15,12,26.00
2012,12,07,15,13,26.00
2012,12,07,15,14,26.00
2012,12,07,15,15,24.90
2012,12,07,15,16,22.90
2012,12,07,15,17,21.00
2012,12,07,15,18,21.00
2012,12,07,15,19,21.00
2012,12,07,15,20,21.00
2012,12,07,15,21,21.50
2012,12,07,15,22,23.00
2012,12,07,15,23,23.00
2012,12,07,15,24,23.00
2012,12,07,15,25,23.00
2012,12,07,15,26,23.00
2012,12,07,15,27,23.00
2012,12,07,15,28,24.10
2012,12,07,15,29,25.00
2012,12,07,15,30,25.00
2012,12,07,15,31,25.00
2012,12,07,15,32,25.00
2012,12,07,15,33,23.40
2012,12,07,15,34,23.00
2012,12,07,15,35,21.30
2012,12,07,15,36,21.00
2012,12,07,15,37,19.20
2012,12,07,15,38,19.00
2012,12,07,15,39,19.00
2012,12,07,15,40,19.00
2012,12,07,15,41,18.90
2012,12,07,15,42,17.60
2012,12,07,15,43,15.50
2012,12,07,15,44,13.40
2012,12,07,15,45,12.00
2012,12,07,15,46,12.00
2012,12,07,15,47,12.00
2012,12,07,15,48,12.00
2012,12,07,15,49,12.00
2012,12,07,15,50,11.50
2012,12,07,15,51,11.00
2012,12,07,15,52,9.70
2012,12,07,15,53,9.00
2012,12,07,15,54,9.00
2012,12,07,15,55,9.00
2012,12,07,15,56,9.00
2012,12,07,15,57,9.00
2012,12,07,15,58,9.00
2012,12,07,15,59,7.20
2012,12,07,16,00,7.00
2012,12,07,16,01,7.00
2012,12,07,16,02,7.00
2012,12,07,16,03,7.00
2012,12,07,16,04,6.70
2012,12,07,16,05,5.00
2012,12,07,16,06,5.00
2012,12,07,16,07,5.00
2012,12,07,16,08,5.00
2012,12,07,16,09,5.00
2012,12,07,16,10,5.00
2012,12,07,16,11,5.00
2012,12,07,16,12,5.00
2012,12,07,16,13,2.50
2012,12,07,16,14,0.00
2012,12,07,16,15,0.00
2012,12,07,16,16,0.00
2012,12,07,16,17,0.00
2012,12,07,16,18,0.00
2012,12,07,16,19,0.00
2012,12,07,16,20,0.00
2012,12,07,16,21,0.00
2012,12,07,16,22,0.00
2012,12,07,16,23,0.00
2012,12,07,16,24,0.00
2012,12,07,16,25,0.00
2012,12,07,16,26,0.00
2012,12,07,16,27,0.00
2012,12,07,16,28,0.00
2012,12,07,16,29,0.00
2012,12,07,16,30,0.00
2012,12,07,16,31,0.00
2012,12,07,16,32,0.00
2012,12,07,16,33,0.00
2012,12,07,16,34,0.00
2012,12,07,16,35,0.00
2012,12,07,16,36,0.00
2012,12,07,16,37,0.00
2012,12,07,16,38,0.00
2012,12,07,16,39,0.00
2012,12,07,16,40,0.00
2012,12,07,16,41,0.00
2012,12,07,16,42,0.00
2012,12,07,16,43,0.00
2012,12,07,16,44,0.00
2012,12,07,16,45,0.00
2012,12,07,16,46,0.00
2012,12,07,16,47,0.00
2012,12,07,16,48,0.00
2012,12,07,16,49,0.00
2012,12,07,16,50,0.00
2012,12,07,16,51,0.00
2012,12,07,16,52,0.00
2012,12,07,16,53,0.00
2012,12,07,16,54,0.00
2012,12,07,16,55,0.00
2012,12,07,16,56,0.00
2012,12,07,16,57,0.00
2012,12,07,16,58,0.00
2012,12,07,16,59,0.00
2012,12,07,17,00,0.00
2012,12,07,17,01,0.00
2012,12,07,17,02,0.00
2012,12,07,17,03,0.00
2012,12,07,17,04,0.00
2012,12,07,17,05,0.00
2012,12,07,17,06,0.00
2012,12,07,17,07,0.00
2012,12,07,17,08,0.00
2012,12,07,17,09,0.00
2012,12,07,17,10,0.00
2012,12,07,17,11,0.00
2012,12,07,17,12,0.00
2012,12,07,17,13,0.00
2012,12,07,17,14,0.00
2012,12,07,17,15,0.00
2012,12,07,17,16,0.00
2012,12,07,17,17,0.00
2012,12,07,17,18,0.00
2012,12,07,17,19,0.00
2012,12,07,17,20,0.00
2012,12,07,17,21,0.00
2012,12,07,17,22,0.00
2012,12,07,17,23,0.00
2012,12,07,17,24,0.00
2012,12,07,17,25,0.00
2012,12,07,17,26,0.00
2012,12,07,17,27,0.00
2012,12,07,17,28,0.00
2012,12,07,17,29,0.00
2012,12,07,17,30,0.00
2012,12,07,17,31,0.00
2012,12,07,17,32,0.00
2012,12,07,17,33,0.00
2012,12,07,17,34,0.00
2012,12,07,17,35,0.00
2012,12,07,17,36,0.00
2012,12,07,17,37,0.00
2012,12,07,17,38,0.00